Location: Morisset
(33.1080°S, 151.4871°E)
Time: 08:51:06
(UTC+00:00)

Cosmos 1892 Rocket - Pass Details

Date: 29 October 2020
Orbit: 607 x 632 km, 82.5° (Epoch: 27 November)

Event Time Altitude Azimuth Distance (km) Brightness Sun altitude
Rises 18:25:35 0° 199° (SSW) 2,905 7.0 -7.0°
Reaches altitude 10° 18:28:01 10° 209° (SSW) 1,989 6.1 -6.5°
Maximum altitude 18:31:53 31° 270° (W) 1,092 4.3 -5.8°
Drops below altitude 10° 18:35:42 10° 332° (NNW) 1,959 5.7 -5.0°
Sets 18:38:05 0° 342° (NNW) 2,854 6.6 -4.5°
